| time (UTC) | temp F | wind direction | speed MPH | gust MPH | rain 1hr in | rain 24hr in | rain mn in | humidity % | barometer mb |
| 20260905204704 | 99 | 109 | 0.0 | 0.0 | 0.00 | 0.00 | 0.00 | 41 | 1009.2 |
| 20260905204203 | 98 | 153 | 0.0 | 0.0 | 0.00 | 0.00 | 0.00 | 42 | 1009.4 |
| 20260905203703 | 97 | 158 | 0.0 | 0.0 | 0.00 | 0.00 | 0.00 | 42 | 1009.5 |
| 20260905203203 | 97 | 158 | 0.0 | 0.0 | 0.00 | 0.00 | 0.00 | 41 | 1009.6 |
| 20260905202703 | 97 | 158 | 0.0 | 0.0 | 0.00 | 0.00 | 0.00 | 41 | 1009.6 |
| 20260905201703 | 97 | 116 | 0.0 | 0.0 | 0.00 | 0.00 | 0.00 | 42 | 1009.9 |
| 20260905201204 | 97 | 104 | 0.0 | 0.0 | 0.00 | 0.00 | 0.00 | 43 | 1009.9 |
| 20260905200704 | 96 | 342 | 0.0 | 0.0 | 0.00 | 0.00 | 0.00 | 45 | 1010.0 |
| 20260905200203 | 96 | 350 | 0.0 | 0.0 | 0.00 | 0.00 | 0.00 | 45 | 1010.2 |
| 20260905195703 | 96 | 346 | 0.0 | 0.0 | 0.00 | 0.00 | 0.00 | 44 | 1010.3 |
| 20260905195204 | 96 | 350 | 0.0 | 0.0 | 0.00 | 0.00 | 0.00 | 44 | 1010.4 |
| 20260905194704 | 97 | 339 | 0.0 | 0.0 | 0.00 | 0.00 | 0.00 | 44 | 1010.5 |
| 20260905194203 | 97 | 311 | 0.0 | 0.0 | 0.00 | 0.00 | 0.00 | 43 | 1010.5 |
| 20260905193703 | 97 | 35 | 0.0 | 0.0 | 0.00 | 0.00 | 0.00 | 43 | 1010.5 |
| 20260905192704 | 98 | 189 | 0.0 | 1.0 | 0.00 | 0.00 | 0.00 | 41 | 1010.7 |
| 20260905192204 | 98 | 154 | 0.0 | 0.0 | 0.00 | 0.00 | 0.00 | 43 | 1010.8 |
| 20260905191704 | 98 | 172 | 0.0 | 5.0 | 0.00 | 0.00 | 0.00 | 42 | 1010.8 |
| 20260905191203 | 98 | 250 | 0.0 | 0.0 | 0.00 | 0.00 | 0.00 | 44 | 1010.9 |
| 20260905190204 | 97 | 57 | 0.0 | 0.0 | 0.00 | 0.00 | 0.00 | 45 | 1011.1 |
| 20260905185703 | 97 | 156 | 0.0 | 0.0 | 0.00 | 0.00 | 0.00 | 44 | 1011.2 |
| 20260905185204 | 96 | 156 | 0.0 | 0.0 | 0.00 | 0.00 | 0.00 | 45 | 1011.3 |
| 20260905183704 | 96 | 277 | 0.0 | 0.0 | 0.00 | 0.00 | 0.00 | 46 | 1011.5 |
| 20260905183203 | 95 | 186 | 0.0 | 0.0 | 0.00 | 0.00 | 0.00 | 46 | 1011.7 |
| 20260905182703 | 95 | 55 | 0.0 | 0.0 | 0.00 | 0.00 | 0.00 | 46 | 1011.8 |
| 20260905181704 | 94 | 242 | 0.0 | 0.0 | 0.00 | 0.00 | 0.00 | 48 | 1012.0 |
| 20260905181204 | 95 | 243 | 0.0 | 0.0 | 0.00 | 0.00 | 0.00 | 49 | 1012.1 |
| 20260905180704 | 95 | 243 | 0.0 | 0.0 | 0.00 | 0.00 | 0.00 | 50 | 1012.2 |
| 20260905180203 | 95 | 244 | 0.0 | 0.0 | 0.00 | 0.00 | 0.00 | 50 | 1012.3 |
| 20260905175203 | 95 | 233 | 0.0 | 0.0 | 0.00 | 0.00 | 0.00 | 50 | 1012.5 |
| 20260905174703 | 94 | 264 | 0.0 | 0.0 | 0.00 | 0.00 | 0.00 | 50 | 1012.6 |
| 20260905174204 | 94 | 293 | 0.0 | 0.0 | 0.00 | 0.00 | 0.00 | 49 | 1012.6 |
| 20260905173704 | 94 | 206 | 0.0 | 0.0 | 0.00 | 0.00 | 0.00 | 51 | 1012.8 |
| 20260905173204 | 93 | 180 | 0.0 | 0.0 | 0.00 | 0.00 | 0.00 | 53 | 1012.8 |
| 20260905172704 | 93 | 278 | 0.0 | 0.0 | 0.00 | 0.00 | 0.00 | 54 | 1013.0 |
| 20260905172203 | 92 | 299 | 0.0 | 0.0 | 0.00 | 0.00 | 0.00 | 56 | 1013.0 |
| 20260905171703 | 91 | 241 | 0.0 | 0.0 | 0.00 | 0.00 | 0.00 | 57 | 1013.1 |
| 20260905171204 | 91 | 189 | 0.0 | 0.0 | 0.00 | 0.00 | 0.00 | 57 | 1013.2 |
| 20260905170704 | 90 | 189 | 1.0 | 3.0 | 0.00 | 0.00 | 0.00 | 58 | 1013.2 |
| 20260905170204 | 90 | 187 | 0.0 | 0.0 | 0.00 | 0.00 | 0.00 | 60 | 1013.2 |
| 20260905165704 | 90 | 181 | 0.0 | 0.0 | 0.00 | 0.00 | 0.00 | 60 | 1013.3 |
| 20260905164704 | 89 | 185 | 0.0 | 3.0 | 0.00 | 0.00 | 0.00 | 62 | 1013.3 |
| 20260905164203 | 89 | 183 | 0.0 | 2.0 | 0.00 | 0.00 | 0.00 | 61 | 1013.3 |
| 20260905162704 | 89 | 181 | 0.0 | 3.0 | 0.00 | 0.00 | 0.00 | 62 | 1013.4 |
| 20260905161703 | 88 | 206 | 0.0 | 0.0 | 0.00 | 0.00 | 0.00 | 65 | 1013.4 |
| 20260905160704 | 88 | 188 | 0.0 | 1.0 | 0.00 | 0.00 | 0.00 | 67 | 1013.4 |
| 20260905160204 | 88 | 198 | 0.0 | 3.0 | 0.00 | 0.00 | 0.00 | 66 | 1013.4 |
| 20260905155703 | 88 | 237 | 0.0 | 0.0 | 0.00 | 0.00 | 0.00 | 67 | 1013.5 |
| 20260905154703 | 87 | 211 | 0.0 | 0.0 | 0.00 | 0.00 | 0.00 | 72 | 1013.5 |
| 20260905154203 | 87 | 166 | 0.0 | 0.0 | 0.00 | 0.00 | 0.00 | 72 | 1013.6 |
| 20260905153704 | 86 | 164 | 0.0 | 0.0 | 0.00 | 0.00 | 0.00 | 73 | 1013.5 |
| 20260905153204 | 86 | 159 | 0.0 | 0.0 | 0.00 | 0.00 | 0.00 | 73 | 1013.6 |
| 20260905152703 | 85 | 156 | 0.0 | 0.0 | 0.00 | 0.00 | 0.00 | 74 | 1013.5 |
| 20260905152204 | 85 | 135 | 0.0 | 0.0 | 0.00 | 0.00 | 0.00 | 74 | 1013.5 |
| 20260905151203 | 85 | 85 | 0.0 | 0.0 | 0.00 | 0.01 | 0.00 | 77 | 1013.4 |
| 20260905150703 | 84 | 183 | 0.0 | 0.0 | 0.00 | 0.01 | 0.00 | 79 | 1013.5 |
| 20260905150204 | 84 | 203 | 0.0 | 0.0 | 0.00 | 0.01 | 0.00 | 82 | 1013.4 |
| 20260905145704 | 83 | 208 | 0.0 | 0.0 | 0.00 | 0.01 | 0.00 | 83 | 1013.4 |
| 20260905145203 | 83 | 208 | 0.0 | 0.0 | 0.00 | 0.01 | 0.00 | 85 | 1013.4 |
| 20260905144704 | 82 | 212 | 0.0 | 0.0 | 0.00 | 0.01 | 0.00 | 86 | 1013.3 |
| 20260905144204 | 82 | 212 | 0.0 | 0.0 | 0.00 | 0.01 | 0.00 | 88 | 1013.3 |
| 20260905143704 | 81 | 148 | 0.0 | 0.0 | 0.00 | 0.01 | 0.00 | 89 | 1013.3 |
| 20260905142703 | 81 | 179 | 0.0 | 0.0 | 0.00 | 0.01 | 0.00 | 92 | 1013.4 |
| 20260905142204 | 80 | 179 | 0.0 | 0.0 | 0.00 | 0.01 | 0.00 | 92 | 1013.3 |
| 20260905141704 | 80 | 160 | 0.0 | 0.0 | 0.00 | 0.01 | 0.00 | 93 | 1013.3 |
| 20260905141203 | 80 | 160 | 0.0 | 1.0 | 0.00 | 0.01 | 0.00 | 93 | 1013.2 |
| 20260905140704 | 80 | 119 | 0.0 | 0.0 | 0.00 | 0.01 | 0.00 | 94 | 1013.2 |
| 20260905140204 | 79 | 114 | 0.0 | 0.0 | 0.00 | 0.01 | 0.00 | 94 | 1013.1 |
| 20260905135704 | 79 | 114 | 0.0 | 0.0 | 0.00 | 0.01 | 0.00 | 94 | 1013.1 |
| 20260905135204 | 79 | 114 | 0.0 | 0.0 | 0.00 | 0.01 | 0.00 | 94 | 1013.1 |
| 20260905134704 | 78 | 114 | 0.0 | 0.0 | 0.00 | 0.01 | 0.00 | 94 | 1013.2 |
| 20260905133704 | 78 | 114 | 0.0 | 0.0 | 0.00 | 0.01 | 0.00 | 95 | 1013.2 |
| 20260905133203 | 78 | 114 | 0.0 | 0.0 | 0.00 | 0.01 | 0.00 | 95 | 1013.2 |
| 20260905132704 | 77 | 114 | 0.0 | 0.0 | 0.00 | 0.01 | 0.00 | 95 | 1013.2 |
| 20260905131703 | 77 | 114 | 0.0 | 0.0 | 0.00 | 0.01 | 0.00 | 94 | 1013.0 |
| 20260905131203 | 77 | 114 | 0.0 | 0.0 | 0.00 | 0.01 | 0.00 | 94 | 1013.0 |
| 20260905130703 | 77 | 114 | 0.0 | 0.0 | 0.00 | 0.01 | 0.00 | 94 | 1013.0 |
| 20260905125703 | 76 | 114 | 0.0 | 0.0 | 0.00 | 0.01 | 0.00 | 94 | 1012.8 |
| 20260905125203 | 76 | 114 | 0.0 | 0.0 | 0.00 | 0.01 | 0.00 | 94 | 1012.7 |
| 20260905124703 | 76 | 114 | 0.0 | 0.0 | 0.00 | 0.01 | 0.00 | 94 | 1012.7 |
| 20260905122704 | 75 | 114 | 0.0 | 0.0 | 0.00 | 0.01 | 0.00 | 94 | 1012.5 |
| 20260905122204 | 75 | 114 | 0.0 | 0.0 | 0.00 | 0.01 | 0.00 | 94 | 1012.3 |
| 20260905121703 | 76 | 114 | 0.0 | 0.0 | 0.00 | 0.01 | 0.00 | 94 | 1012.3 |
| 20260905121203 | 75 | 114 | 0.0 | 0.0 | 0.00 | 0.01 | 0.00 | 93 | 1012.3 |
| 20260905120204 | 75 | 114 | 0.0 | 0.0 | 0.00 | 0.01 | 0.00 | 93 | 1012.2 |
| 20260905115704 | 76 | 114 | 0.0 | 0.0 | 0.00 | 0.02 | 0.00 | 93 | 1012.2 |
| 20260905115203 | 76 | 114 | 0.0 | 0.0 | 0.00 | 0.02 | 0.00 | 93 | 1012.2 |
| 20260905114703 | 76 | 114 | 0.0 | 0.0 | 0.00 | 0.03 | 0.00 | 93 | 1012.2 |
| 20260905114203 | 76 | 114 | 0.0 | 0.0 | 0.00 | 0.03 | 0.00 | 93 | 1012.1 |
| 20260905113704 | 76 | 114 | 0.0 | 0.0 | 0.00 | 0.04 | 0.00 | 93 | 1012.1 |
| 20260905113204 | 76 | 114 | 0.0 | 0.0 | 0.00 | 0.06 | 0.00 | 93 | 1012.2 |
| 20260905112704 | 76 | 114 | 0.0 | 0.0 | 0.00 | 0.07 | 0.00 | 93 | 1012.2 |
| 20260905112203 | 76 | 114 | 0.0 | 0.0 | 0.00 | 0.07 | 0.00 | 93 | 1012.1 |
| 20260905111703 | 76 | 114 | 0.0 | 0.0 | 0.00 | 0.07 | 0.00 | 93 | 1012.1 |
| 20260905110703 | 76 | 114 | 0.0 | 0.0 | 0.00 | 0.07 | 0.00 | 93 | 1011.9 |
| 20260905110203 | 76 | 114 | 0.0 | 0.0 | 0.00 | 0.07 | 0.00 | 93 | 1011.9 |
| 20260905105704 | 76 | 114 | 0.0 | 0.0 | 0.00 | 0.07 | 0.00 | 93 | 1011.9 |
| 20260905105203 | 76 | 114 | 0.0 | 0.0 | 0.00 | 0.07 | 0.00 | 93 | 1011.9 |
| 20260905104703 | 76 | 114 | 0.0 | 0.0 | 0.00 | 0.07 | 0.00 | 93 | 1011.9 |
| 20260905104203 | 76 | 114 | 0.0 | 0.0 | 0.00 | 0.07 | 0.00 | 93 | 1011.9 |
| 20260905103703 | 76 | 114 | 0.0 | 0.0 | 0.00 | 0.07 | 0.00 | 93 | 1011.8 |
| 20260905103204 | 75 | 114 | 0.0 | 0.0 | 0.00 | 0.07 | 0.00 | 93 | 1011.9 |
| 20260905102703 | 75 | 114 | 0.0 | 0.0 | 0.00 | 0.07 | 0.00 | 92 | 1011.9 |
| 20260905102204 | 75 | 114 | 0.0 | 0.0 | 0.00 | 0.07 | 0.00 | 92 | 1011.9 |
| 20260905101704 | 75 | 114 | 0.0 | 0.0 | 0.00 | 0.07 | 0.00 | 92 | 1011.9 |
| 20260905101203 | 75 | 114 | 0.0 | 0.0 | 0.00 | 0.07 | 0.00 | 92 | 1011.7 |
| 20260905100704 | 76 | 114 | 0.0 | 0.0 | 0.00 | 0.07 | 0.00 | 92 | 1011.6 |
| 20260905095704 | 76 | 114 | 0.0 | 0.0 | 0.00 | 0.07 | 0.00 | 92 | 1011.7 |
| 20260905095204 | 76 | 114 | 0.0 | 0.0 | 0.00 | 0.07 | 0.00 | 92 | 1011.6 |
| 20260905094203 | 76 | 114 | 0.0 | 0.0 | 0.00 | 0.07 | 0.00 | 91 | 1011.6 |
| 20260905093704 | 76 | 114 | 0.0 | 0.0 | 0.00 | 0.07 | 0.00 | 92 | 1011.6 |
| 20260905093204 | 76 | 114 | 0.0 | 0.0 | 0.00 | 0.07 | 0.00 | 91 | 1011.6 |
| 20260905092704 | 76 | 114 | 0.0 | 0.0 | 0.00 | 0.07 | 0.00 | 91 | 1011.7 |
| 20260905092204 | 76 | 114 | 0.0 | 0.0 | 0.00 | 0.07 | 0.00 | 91 | 1011.8 |
| 20260905091204 | 76 | 114 | 0.0 | 0.0 | 0.00 | 0.07 | 0.00 | 91 | 1011.8 |
| 20260905090704 | 76 | 114 | 0.0 | 0.0 | 0.00 | 0.07 | 0.00 | 90 | 1011.7 |
| 20260905090204 | 76 | 114 | 0.0 | 0.0 | 0.00 | 0.07 | 0.00 | 90 | 1011.8 |
| 20260905085204 | 76 | 114 | 0.0 | 0.0 | 0.00 | 0.07 | 0.00 | 90 | 1011.7 |
| 20260905084703 | 76 | 114 | 0.0 | 0.0 | 0.00 | 0.07 | 0.00 | 90 | 1011.7 |
| 20260905084203 | 76 | 114 | 0.0 | 0.0 | 0.00 | 0.07 | 0.00 | 90 | 1011.7 |
| 20260905083704 | 76 | 114 | 0.0 | 0.0 | 0.00 | 0.07 | 0.00 | 90 | 1011.7 |
| 20260905083203 | 76 | 114 | 0.0 | 0.0 | 0.00 | 0.07 | 0.00 | 90 | 1011.8 |
| 20260905082703 | 76 | 114 | 0.0 | 0.0 | 0.00 | 0.07 | 0.00 | 90 | 1011.8 |
| 20260905081704 | 76 | 114 | 0.0 | 0.0 | 0.00 | 0.07 | 0.00 | 90 | 1011.9 |
| 20260905081203 | 76 | 114 | 0.0 | 0.0 | 0.00 | 0.07 | 0.00 | 89 | 1011.8 |
| 20260905080704 | 76 | 114 | 0.0 | 0.0 | 0.00 | 0.07 | 0.00 | 89 | 1011.9 |
| 20260905080204 | 77 | 114 | 0.0 | 0.0 | 0.00 | 0.07 | 0.00 | 89 | 1011.9 |
| 20260905075704 | 77 | 114 | 0.0 | 0.0 | 0.00 | 0.07 | 0.00 | 89 | 1012.1 |
| 20260905074704 | 77 | 114 | 0.0 | 0.0 | 0.00 | 0.07 | 0.00 | 89 | 1012.1 |
| 20260905074203 | 77 | 114 | 0.0 | 0.0 | 0.00 | 0.07 | 0.00 | 89 | 1012.1 |
| 20260905073703 | 77 | 114 | 0.0 | 0.0 | 0.00 | 0.07 | 0.00 | 88 | 1012.1 |
| 20260905073203 | 77 | 114 | 0.0 | 0.0 | 0.00 | 0.07 | 0.00 | 88 | 1012.2 |
| 20260905072703 | 77 | 114 | 0.0 | 0.0 | 0.00 | 0.07 | 0.00 | 88 | 1012.2 |
| 20260905072203 | 77 | 114 | 0.0 | 0.0 | 0.00 | 0.07 | 0.00 | 88 | 1012.2 |
| 20260905071703 | 77 | 114 | 0.0 | 0.0 | 0.00 | 0.07 | 0.00 | 87 | 1012.3 |
| 20260905071203 | 77 | 114 | 0.0 | 0.0 | 0.00 | 0.07 | 0.00 | 87 | 1012.4 |
| 20260905065704 | 78 | 114 | 0.0 | 0.0 | 0.00 | 0.07 | 0.00 | 87 | 1012.4 |
| 20260905065204 | 78 | 114 | 0.0 | 0.0 | 0.00 | 0.07 | 0.00 | 86 | 1012.4 |
| 20260905063704 | 78 | 114 | 0.0 | 0.0 | 0.00 | 0.07 | 0.00 | 86 | 1012.5 |
| 20260905063203 | 78 | 114 | 0.0 | 0.0 | 0.00 | 0.07 | 0.00 | 86 | 1012.5 |
| 20260905062704 | 78 | 114 | 0.0 | 0.0 | 0.00 | 0.07 | 0.00 | 85 | 1012.5 |
| 20260905062204 | 78 | 114 | 0.0 | 0.0 | 0.00 | 0.07 | 0.00 | 85 | 1012.5 |
| 20260905061703 | 79 | 114 | 0.0 | 0.0 | 0.00 | 0.07 | 0.00 | 85 | 1012.5 |
| 20260905061203 | 79 | 114 | 0.0 | 0.0 | 0.00 | 0.07 | 0.00 | 84 | 1012.5 |
| 20260905060704 | 79 | 114 | 0.0 | 0.0 | 0.00 | 0.07 | 0.00 | 84 | 1012.6 |
| 20260905060204 | 79 | 114 | 0.0 | 0.0 | 0.00 | 0.07 | 0.00 | 84 | 1012.6 |
| 20260905055703 | 79 | 114 | 0.0 | 0.0 | 0.00 | 0.07 | 0.00 | 83 | 1012.5 |
| 20260905055204 | 79 | 114 | 0.0 | 0.0 | 0.00 | 0.07 | 0.00 | 83 | 1012.5 |
| 20260905054703 | 79 | 114 | 0.0 | 0.0 | 0.00 | 0.07 | 0.00 | 83 | 1012.5 |
| 20260905054204 | 79 | 114 | 0.0 | 0.0 | 0.00 | 0.07 | 0.00 | 82 | 1012.5 |
| 20260905053204 | 80 | 114 | 0.0 | 0.0 | 0.00 | 0.07 | 0.00 | 82 | 1012.5 |
| 20260905052703 | 80 | 114 | 0.0 | 0.0 | 0.00 | 0.07 | 0.00 | 82 | 1012.5 |
| 20260905052204 | 80 | 114 | 0.0 | 0.0 | 0.00 | 0.07 | 0.00 | 82 | 1012.5 |
| 20260905051703 | 80 | 114 | 0.0 | 0.0 | 0.00 | 0.07 | 0.00 | 81 | 1012.5 |
| 20260905050203 | 80 | 114 | 0.0 | 0.0 | 0.00 | 0.07 | 0.00 | 81 | 1012.5 |
| 20260905045703 | 80 | 114 | 0.0 | 0.0 | 0.00 | 0.07 | 0.07 | 80 | 1012.6 |
| 20260905043704 | 81 | 114 | 0.0 | 0.0 | 0.00 | 0.07 | 0.07 | 79 | 1012.5 |
| 20260905043203 | 81 | 114 | 0.0 | 0.0 | 0.00 | 0.07 | 0.07 | 79 | 1012.6 |
| 20260905042203 | 81 | 114 | 0.0 | 0.0 | 0.00 | 0.07 | 0.07 | 79 | 1012.5 |
| 20260905041203 | 81 | 114 | 0.0 | 0.0 | 0.00 | 0.07 | 0.07 | 79 | 1012.5 |
| 20260905040203 | 81 | 114 | 0.0 | 0.0 | 0.00 | 0.07 | 0.07 | 79 | 1012.4 |
| 20260905035204 | 81 | 114 | 0.0 | 0.0 | 0.00 | 0.07 | 0.07 | 79 | 1012.4 |
| 20260905034203 | 81 | 114 | 0.0 | 0.0 | 0.00 | 0.07 | 0.07 | 79 | 1012.4 |
| 20260905033203 | 82 | 114 | 0.0 | 0.0 | 0.00 | 0.07 | 0.07 | 78 | 1012.3 |
| 20260905032704 | 82 | 114 | 0.0 | 0.0 | 0.00 | 0.07 | 0.07 | 78 | 1012.3 |
| 20260905032204 | 82 | 114 | 0.0 | 0.0 | 0.00 | 0.07 | 0.07 | 78 | 1012.3 |
| 20260905031203 | 82 | 114 | 0.0 | 0.0 | 0.00 | 0.07 | 0.07 | 77 | 1012.3 |
| 20260905030704 | 82 | 114 | 0.0 | 0.0 | 0.00 | 0.07 | 0.07 | 77 | 1012.2 |
| 20260905025704 | 82 | 114 | 0.0 | 0.0 | 0.00 | 0.07 | 0.07 | 76 | 1012.1 |
| 20260905025204 | 82 | 114 | 0.0 | 0.0 | 0.00 | 0.07 | 0.07 | 76 | 1012.0 |
| 20260905024703 | 83 | 114 | 0.0 | 0.0 | 0.00 | 0.07 | 0.07 | 75 | 1012.1 |
| 20260905023703 | 83 | 114 | 0.0 | 0.0 | 0.00 | 0.07 | 0.07 | 74 | 1012.0 |
| 20260905023204 | 83 | 114 | 0.0 | 0.0 | 0.00 | 0.07 | 0.07 | 73 | 1011.9 |
| 20260905022703 | 83 | 114 | 0.0 | 0.0 | 0.00 | 0.07 | 0.07 | 73 | 1011.8 |
| 20260905022204 | 84 | 114 | 0.0 | 0.0 | 0.00 | 0.07 | 0.07 | 72 | 1011.7 |
| 20260905021704 | 84 | 114 | 0.0 | 0.0 | 0.00 | 0.07 | 0.07 | 72 | 1011.7 |
| 20260905021204 | 84 | 114 | 0.0 | 0.0 | 0.00 | 0.07 | 0.07 | 71 | 1011.6 |
| 20260905020704 | 84 | 114 | 0.0 | 0.0 | 0.00 | 0.07 | 0.07 | 70 | 1011.6 |
| 20260905020203 | 84 | 114 | 0.0 | 0.0 | 0.00 | 0.07 | 0.07 | 69 | 1011.6 |
| 20260905015704 | 84 | 114 | 0.0 | 0.0 | 0.00 | 0.07 | 0.07 | 69 | 1011.6 |
| 20260905015204 | 84 | 114 | 0.0 | 0.0 | 0.00 | 0.07 | 0.07 | 68 | 1011.5 |
| 20260905014703 | 84 | 114 | 0.0 | 0.0 | 0.00 | 0.07 | 0.07 | 67 | 1011.4 |
| 20260905013704 | 85 | 114 | 0.0 | 0.0 | 0.00 | 0.07 | 0.07 | 67 | 1011.3 |
| 20260905013203 | 85 | 114 | 0.0 | 0.0 | 0.00 | 0.07 | 0.07 | 66 | 1011.2 |
| 20260905012203 | 85 | 114 | 0.0 | 0.0 | 0.00 | 0.07 | 0.07 | 65 | 1011.1 |
| 20260905011703 | 85 | 114 | 0.0 | 0.0 | 0.00 | 0.07 | 0.07 | 65 | 1011.0 |
| 20260905011204 | 86 | 114 | 0.0 | 0.0 | 0.00 | 0.07 | 0.07 | 65 | 1011.0 |
| 20260905010203 | 86 | 114 | 0.0 | 0.0 | 0.00 | 0.07 | 0.07 | 64 | 1011.0 |
| 20260905005204 | 87 | 114 | 0.0 | 0.0 | 0.00 | 0.07 | 0.07 | 63 | 1010.9 |
| 20260905004703 | 87 | 114 | 0.0 | 0.0 | 0.00 | 0.07 | 0.07 | 62 | 1010.8 |
| 20260905004203 | 87 | 114 | 0.0 | 0.0 | 0.00 | 0.07 | 0.07 | 62 | 1010.8 |
| 20260905003703 | 87 | 114 | 0.0 | 0.0 | 0.00 | 0.07 | 0.07 | 61 | 1010.8 |
| 20260905003203 | 87 | 114 | 0.0 | 0.0 | 0.00 | 0.07 | 0.07 | 61 | 1010.7 |
| 20260905002704 | 87 | 114 | 0.0 | 0.0 | 0.00 | 0.07 | 0.07 | 61 | 1010.7 |
| 20260905002204 | 87 | 114 | 0.0 | 0.0 | 0.00 | 0.07 | 0.07 | 61 | 1010.7 |
| 20260905001703 | 88 | 114 | 0.0 | 0.0 | 0.00 | 0.07 | 0.07 | 62 | 1010.7 |
| 20260905001203 | 88 | 116 | 0.0 | 0.0 | 0.00 | 0.07 | 0.07 | 63 | 1010.7 |
| 20260905000704 | 88 | 108 | 0.0 | 0.0 | 0.00 | 0.07 | 0.07 | 63 | 1010.7 |
| 20260905000204 | 88 | 104 | 0.0 | 0.0 | 0.00 | 0.07 | 0.07 | 64 | 1010.7 |
| 20260904235704 | 88 | 102 | 0.0 | 0.0 | 0.00 | 0.07 | 0.07 | 64 | 1010.7 |
| 20260904235204 | 89 | 78 | 0.0 | 3.0 | 0.00 | 0.07 | 0.07 | 64 | 1010.6 |
| 20260904234704 | 89 | 104 | 0.0 | 0.0 | 0.00 | 0.07 | 0.07 | 64 | 1010.6 |
| 20260904234204 | 89 | 44 | 0.0 | 0.0 | 0.00 | 0.07 | 0.07 | 64 | 1010.7 |
| 20260904233704 | 89 | 94 | 0.0 | 3.0 | 0.00 | 0.07 | 0.07 | 63 | 1010.7 |
| 20260904233204 | 89 | 114 | 1.0 | 3.0 | 0.00 | 0.07 | 0.07 | 63 | 1010.7 |
| 20260904232704 | 89 | 122 | 0.0 | 3.0 | 0.00 | 0.07 | 0.07 | 63 | 1010.6 |
| 20260904232204 | 89 | 101 | 0.0 | 0.0 | 0.00 | 0.07 | 0.07 | 63 | 1010.6 |
| 20260904231703 | 89 | 112 | 0.0 | 0.0 | 0.00 | 0.07 | 0.07 | 63 | 1010.6 |
| 20260904231203 | 89 | 91 | 0.0 | 0.0 | 0.00 | 0.07 | 0.07 | 62 | 1010.6 |
| 20260904230704 | 90 | 106 | 0.0 | 6.0 | 0.00 | 0.07 | 0.07 | 63 | 1010.6 |
| 20260904230203 | 90 | 119 | 0.0 | 0.0 | 0.00 | 0.07 | 0.07 | 62 | 1010.5 |
| 20260904225704 | 90 | 119 | 0.0 | 3.0 | 0.00 | 0.07 | 0.07 | 60 | 1010.6 |
| 20260904225204 | 90 | 81 | 0.0 | 0.0 | 0.00 | 0.07 | 0.07 | 60 | 1010.5 |
| 20260904224704 | 90 | 115 | 0.0 | 3.0 | 0.00 | 0.07 | 0.07 | 60 | 1010.6 |
| 20260904223704 | 90 | 114 | 0.0 | 3.0 | 0.00 | 0.07 | 0.07 | 59 | 1010.7 |
| 20260904223204 | 89 | 96 | 0.0 | 1.0 | 0.00 | 0.07 | 0.07 | 59 | 1010.8 |
| 20260904222203 | 89 | 108 | 0.0 | 0.0 | 0.00 | 0.07 | 0.07 | 60 | 1010.8 |
| 20260904221703 | 89 | 109 | 0.0 | 0.0 | 0.00 | 0.07 | 0.07 | 59 | 1010.8 |
| 20260904221204 | 89 | 108 | 0.0 | 0.0 | 0.00 | 0.07 | 0.07 | 60 | 1010.8 |
| 20260904220703 | 89 | 117 | 0.0 | 3.0 | 0.00 | 0.07 | 0.07 | 60 | 1010.9 |
| 20260904220203 | 88 | 106 | 0.0 | 6.0 | 0.00 | 0.07 | 0.07 | 61 | 1010.9 |
| 20260904215704 | 88 | 87 | 0.0 | 6.0 | 0.00 | 0.07 | 0.07 | 62 | 1011.0 |
| 20260904214204 | 89 | 94 | 1.0 | 3.0 | 0.00 | 0.07 | 0.07 | 61 | 1011.2 |
| 20260904213704 | 89 | 122 | 1.0 | 3.0 | 0.00 | 0.07 | 0.07 | 60 | 1011.2 |
| 20260904213204 | 89 | 148 | 0.0 | 0.0 | 0.00 | 0.07 | 0.07 | 60 | 1011.3 |
| 20260904212703 | 89 | 148 | 0.0 | 0.0 | 0.00 | 0.07 | 0.07 | 61 | 1011.3 |
| 20260904211704 | 90 | 87 | 0.0 | 0.0 | 0.00 | 0.07 | 0.07 | 59 | 1011.4 |
| 20260904211204 | 91 | 99 | 0.0 | 0.0 | 0.00 | 0.07 | 0.07 | 58 | 1011.4 |
| 20260904210704 | 92 | 103 | 0.0 | 0.0 | 0.00 | 0.07 | 0.07 | 57 | 1011.3 |
| 20260904210204 | 93 | 112 | 0.0 | 0.0 | 0.00 | 0.07 | 0.07 | 52 | 1011.3 |
| 20260904205703 | 94 | 198 | 0.0 | 0.0 | 0.00 | 0.07 | 0.07 | 51 | 1011.2 |
| 20260904205204 | 94 | 126 | 0.0 | 0.0 | 0.00 | 0.07 | 0.07 | 50 | 1011.2 |